User: anonymous   Login
Location: Unspecified
(0.0000°N, 0.0000°E)
Time: 12:36:31
(UTC+00:00)
Language:

IRS-1A - Orbit

View from above orbital plane
View from above orbital plane
View from above satellite
View from above satellite

Ground track
Ground track

The orbit data is extracted from the following two-line orbital elements,

1 18960U 88021A   18200.81024531 -.00000254  00000-0 -14995-3 0  9992
2 18960  99.2123 263.8201 0013858 218.3555 250.6372 13.96763511450059
Epoch (UTC): 19 July 2018 19:26:45
Eccentricity: 0.0013858
inclination: 99.2123°
perigee height: 895 km
apogee height: 915 km
right ascension of ascending node: 263.8201°
argument of perigee: 218.3555°
revolutions per day: 13.96763511
mean anomaly at epoch: 250.6372°
orbit number at epoch: 45005

The dashed part of the orbit path shows where the satellite is in the earth's shadow,  

DLR